Date String (YYYY-MM-DD hh:mm:ss) UTC,Instrument flags,absolute air pressure of the measurement (hPa),sample flow rate (lpm),inlet stack bypass flow (lpm),air temperature of the measurement (°C),ambient temperature measured by the external sensor (°C),aerosol sample conditioner tube jacket temperature (°C),OPC LED temperature (°C),internal box temperature (°C),relative humidity of the measurement (%),span deviation,mass concentration of particles derived from Lorenz-Mie calculation of OPC scattering (μg/m³),mass concentration of particles derived from Lorenz-Mie calculation of OPC scattering (μg/m³),mass concentration of particles derived from Lorenz-Mie calculation of OPC scattering (μg/m³)
DateTimeUTC,F1_M11,P_M11,Q1_M11,Q2_M11,T1_M11,T2_M11,T3_M11,T4_M11,T5_M11,U1_M11,ZSPAN_M11,X0_M11,X2_M11,X1_M11
2023-08-25 00:00:00,SystemResetWarning,0831.8,5.00,000.00,028.1,025.9,000.0,036.1,029.5,34.8,0000.6,0014.92,0007.48,0006.40
2023-08-25 00:01:00,SystemResetWarning,0832.0,4.98,000.00,028.0,024.8,000.0,036.1,029.2,34.9,0000.5,0014.76,0007.45,0006.41
2023-08-25 00:02:00,SystemResetWarning,0831.7,5.01,000.00,028.0,023.9,000.0,036.0,029.0,35.2,0000.2,0014.14,0007.37,0006.41
2023-08-25 00:03:00,SystemResetWarning,0831.7,5.01,000.00,028.1,023.9,000.0,036.0,029.0,35.2,0000.2,0013.67,0007.35,0006.41
2023-08-25 00:04:00,SystemResetWarning,0831.7,5.00,000.00,028.3,024.3,000.0,036.0,029.2,34.7,0000.4,0013.32,0007.41,0006.42
2023-08-25 00:05:00,SystemResetWarning,0831.7,4.98,000.00,028.5,024.8,000.0,036.0,029.4,34.2,0000.7,0013.56,0007.43,0006.42
2023-08-25 00:06:00,SystemResetWarning,0831.7,5.01,000.00,028.6,025.2,000.0,036.1,029.5,33.9,0000.9,0013.95,0007.39,0006.43
2023-08-25 00:07:00,SystemResetWarning,0831.8,5.01,000.00,028.8,025.7,000.0,036.2,029.6,33.6,0000.9,0013.85,0007.41,0006.43
2023-08-25 00:08:00,SystemResetWarning,0831.9,4.98,000.00,028.8,026.1,000.0,036.3,029.7,33.4,0001.1,0014.27,0007.42,0006.42
2023-08-25 00:09:00,SystemResetWarning,0831.8,4.99,000.00,028.9,025.6,000.0,036.3,029.6,33.3,0001.2,0014.62,0007.43,0006.43
2023-08-25 00:10:00,SystemResetWarning,0831.7,5.00,000.00,028.9,024.2,000.0,036.3,029.3,33.2,0001.3,0014.21,0007.40,0006.42
2023-08-25 00:11:00,SystemResetWarning,0831.6,5.00,000.00,028.8,023.8,000.0,036.3,029.1,33.3,0000.8,0013.55,0007.39,0006.42
2023-08-25 00:12:00,SystemResetWarning,0831.7,5.02,000.00,028.7,024.1,000.0,036.3,029.1,33.3,0000.6,0013.33,0007.34,0006.41
2023-08-25 00:13:00,SystemResetWarning,0831.6,5.00,000.00,028.7,024.5,000.0,036.4,029.3,33.3,0000.7,0013.33,0007.33,0006.40
2023-08-25 00:14:00,SystemResetWarning,0831.6,5.00,000.00,028.6,025.0,000.0,036.5,029.4,33.1,0000.5,0014.00,0007.36,0006.38
2023-08-25 00:15:00,SystemResetWarning,0831.7,5.00,000.00,028.7,025.5,000.0,036.5,029.5,33.2,0000.4,0014.38,0007.30,0006.36
2023-08-25 00:16:00,SystemResetWarning,0831.7,5.00,000.00,028.7,025.9,000.0,036.6,029.7,33.0,0000.5,0014.45,0007.30,0006.35
2023-08-25 00:17:00,SystemResetWarning,0831.7,4.99,000.00,028.7,025.4,000.0,036.5,029.6,32.7,0000.4,0014.02,0007.31,0006.33
2023-08-25 00:18:00,SystemResetWarning,0831.6,4.99,000.00,028.6,024.0,000.0,036.4,029.2,32.9,0000.6,0014.61,0007.33,0006.32
2023-08-25 00:19:00,SystemResetWarning,0831.6,5.01,000.00,028.5,023.7,000.0,036.4,029.1,33.1,0001.2,0015.05,0007.34,0006.32
2023-08-25 00:20:00,SystemResetWarning,0831.6,5.01,000.00,028.4,023.9,000.0,036.4,029.0,33.3,0001.4,0015.10,0007.34,0006.29
2023-08-25 00:21:00,SystemResetWarning,0831.6,5.00,000.00,028.4,024.4,000.0,036.4,029.2,33.4,0001.6,0015.21,0007.32,0006.27
2023-08-25 00:22:00,SystemResetWarning,0831.7,5.00,000.00,028.4,024.9,000.0,036.4,029.3,33.5,0001.5,0015.56,0007.33,0006.25
2023-08-25 00:23:00,SystemResetWarning,0831.6,5.00,000.00,028.4,025.4,000.0,036.5,029.5,33.5,0001.3,0016.45,0007.33,0006.24
2023-08-25 00:24:00,SystemResetWarning,0831.6,5.00,000.00,028.4,025.8,000.0,036.5,029.6,33.4,0001.8,0018.22,0007.40,0006.24
2023-08-25 00:25:00,SystemResetWarning,0831.7,5.00,000.00,028.5,026.2,000.0,036.5,029.7,33.3,0001.9,0017.99,0007.38,0006.24
2023-08-25 00:26:00,SystemResetWarning,0831.7,4.98,000.00,028.5,025.7,000.0,036.5,029.6,33.3,0001.9,0017.60,0007.34,0006.22
2023-08-25 00:27:00,SystemResetWarning,0831.6,4.99,000.00,028.4,024.3,000.0,036.4,029.2,33.5,0001.8,0017.91,0007.31,0006.21
2023-08-25 00:28:00,SystemResetWarning,0831.6,5.01,000.00,028.3,023.8,000.0,036.3,029.1,33.9,0001.9,0017.86,0007.30,0006.21
2023-08-25 00:29:00,SystemResetWarning,0831.6,5.01,000.00,028.2,024.0,000.0,036.3,029.0,34.2,0001.5,0017.31,0007.25,0006.18
2023-08-25 00:30:00,SystemResetWarning,0831.6,4.99,000.00,028.2,024.4,000.0,036.3,029.1,34.3,0001.2,0016.80,0007.20,0006.16
2023-08-25 00:31:00,SystemResetWarning,0831.5,4.99,000.00,028.1,024.9,000.0,036.3,029.3,34.2,0000.8,0017.17,0007.21,0006.16
2023-08-25 00:32:00,SystemResetWarning,0831.6,5.01,000.00,028.2,025.3,000.0,036.4,029.4,34.1,0000.6,0016.94,0007.25,0006.16
2023-08-25 00:33:00,SystemResetWarning,0831.6,5.01,000.00,028.2,025.8,000.0,036.4,029.5,33.8,0000.8,0017.03,0007.27,0006.16
2023-08-25 00:34:00,SystemResetWarning,0831.6,5.00,000.00,028.2,026.0,000.0,036.4,029.6,33.5,0001.5,0016.33,0007.26,0006.16
2023-08-25 00:35:00,SystemResetWarning,0831.5,4.99,000.00,028.2,025.0,000.0,036.3,029.3,33.5,0001.3,0015.13,0007.19,0006.13
2023-08-25 00:36:00,SystemResetWarning,0831.5,5.00,000.00,028.1,023.9,000.0,036.2,029.0,33.6,0001.1,0014.50,0007.13,0006.12
2023-08-25 00:37:00,SystemResetWarning,0831.5,5.01,000.00,028.0,023.8,000.0,036.1,028.9,33.8,0001.2,0014.20,0007.13,0006.11
2023-08-25 00:38:00,SystemResetWarning,0831.5,5.01,000.00,027.9,024.1,000.0,036.2,029.0,33.9,0001.2,0013.67,0007.11,0006.09
2023-08-25 00:39:00,SystemResetWarning,0831.5,5.00,000.00,027.9,024.6,000.0,036.2,029.1,33.9,0001.4,0013.48,0007.07,0006.06
2023-08-25 00:40:00,SystemResetWarning,0831.5,5.00,000.00,027.9,025.1,000.0,036.2,029.3,33.9,0001.5,0013.48,0007.12,0006.05
2023-08-25 00:41:00,SystemResetWarning,0831.5,5.00,000.00,028.0,025.5,000.0,036.2,029.4,33.8,0001.5,0013.10,0007.07,0006.02
2023-08-25 00:42:00,SystemResetWarning,0831.5,5.00,000.00,028.0,025.9,000.0,036.2,029.5,33.8,0001.7,0012.70,0007.02,0006.01
2023-08-25 00:43:00,SystemResetWarning,0831.5,5.00,000.00,028.1,026.3,000.0,036.3,029.6,33.7,0001.9,0013.44,0007.00,0005.98
2023-08-25 00:44:00,SystemResetWarning,0831.5,4.99,000.00,028.1,026.0,000.0,036.2,029.6,33.7,0001.8,0013.55,0006.96,0005.96
2023-08-25 00:45:00,SystemResetWarning,0831.4,4.99,000.00,028.0,024.6,000.0,036.1,029.2,33.8,0001.1,0013.36,0006.93,0005.94
2023-08-25 00:46:00,SystemResetWarning,0831.5,5.00,000.00,027.9,023.9,000.0,036.0,029.0,34.0,0001.3,0013.33,0006.92,0005.92
2023-08-25 00:47:00,SystemResetWarning,0831.4,5.01,000.00,027.8,024.0,000.0,036.0,028.9,34.1,0001.3,0013.77,0006.94,0005.91
2023-08-25 00:48:00,SystemResetWarning,0831.5,5.01,000.00,027.8,024.4,000.0,036.1,029.1,34.1,0001.5,0014.28,0006.95,0005.90
2023-08-25 00:49:00,SystemResetWarning,0831.5,5.00,000.00,027.8,024.9,000.0,036.1,029.2,34.0,0001.8,0014.15,0006.91,0005.91
2023-08-25 00:50:00,SystemResetWarning,0831.5,5.00,000.00,027.8,025.3,000.0,036.1,029.3,33.9,0001.6,0014.20,0006.91,0005.92
2023-08-25 00:51:00,SystemResetWarning,0831.5,5.00,000.00,027.9,025.8,000.0,036.1,029.4,33.7,0001.5,0014.32,0006.90,0005.92
2023-08-25 00:52:00,SystemResetWarning,0831.6,5.00,000.00,027.9,026.1,000.0,036.2,029.5,33.5,0001.5,0014.86,0006.94,0005.93
2023-08-25 00:53:00,SystemResetWarning,0831.6,4.99,000.00,028.0,026.0,000.0,036.1,029.5,33.3,0001.5,0014.43,0006.94,0005.93
2023-08-25 00:54:00,SystemResetWarning,0831.5,4.99,000.00,027.9,024.6,000.0,036.0,029.2,33.4,0001.5,0013.93,0006.89,0005.94
2023-08-25 00:55:00,SystemResetWarning,0831.5,5.01,000.00,027.8,023.8,000.0,035.9,029.0,33.5,0001.5,0013.59,0006.86,0005.95
2023-08-25 00:56:00,SystemResetWarning,0831.6,5.01,000.00,027.7,024.0,000.0,035.9,029.0,33.7,0001.8,0013.47,0006.88,0005.95
2023-08-25 00:57:00,SystemResetWarning,0831.6,5.01,000.00,027.7,024.3,000.0,036.0,029.0,33.8,0001.6,0013.54,0006.89,0005.97
2023-08-25 00:58:00,SystemResetWarning,0831.6,5.00,000.00,027.7,024.8,000.0,036.0,029.2,33.8,0001.5,0013.32,0006.87,0005.97
2023-08-25 00:59:00,SystemResetWarning,0831.6,5.00,000.00,027.7,025.3,000.0,036.0,029.3,33.6,0001.3,0012.88,0006.83,0005.97
